GFSMA_850_dewp_231.txt.gz
Dewpoint
5 6 7 8 8 8 9 9 9 9 8 7 7 8 9 9 10 10 11 11 9 9 9 9 9 9 9 9 10 10 10 10 10 11 11 11 10 10 10 10 10 9 7
6 6 7 7 8 8 9 9 10 10 10 10 9 9 10 11 11 12 11 10 10 10 10 9 9 9 8 8 8 7 6 3 1 -3 -1 5 9 10 10 10 10 10 10
7 7 7 8 8 8 9 10 11 11 11 11 11 11 11 11 12 12 12 11 11 11 10 9 6 1 -5 -6 -8 -9 -9 -8 -7 -4 -3 -2 -1 2 7 9 10 9 9
7 7 8 8 8 8 9 10 11 12 12 12 12 12 12 12 12 12 12 12 12 12 11 9 -4 -11 -13 -14 -12 -10 -8 -5 -4 -4 -3 -2 -1 0 3 4 8 9 9
7 7 8 8 8 9 9 10 11 12 13 13 13 13 12 12 12 12 12 12 12 12 10 4 -12 -15 -12 -11 -10 -8 -9 -11 -14 -14 -12 -8 -6 -3 1 2 2 2 2
7 7 8 8 9 9 9 10 11 12 13 13 13 12 12 12 11 12 12 12 12 11 6 -12 -12 -11 -13 -14 -15 -19 -21 -20 -20 -21 -19 -15 -14 -13 -7 0 1 3 0
7 8 8 9 9 9 9 10 12 13 13 13 12 11 12 11 11 11 11 11 10 -9 -14 -12 -13 -15 -17 -20 -22 -21 -19 -17 -16 -14 -12 -11 -10 -8 -6 -5 -3 1 1
6 8 9 9 10 10 10 11 13 13 13 12 13 11 12 11 11 10 10 3 -14 -14 -15 -15 -15 -17 -20 -21 -19 -17 -15 -14 -12 -11 -9 -9 -9 -8 -8 -6 -3 -0 1
6 8 10 10 10 10 10 12 12 13 12 12 12 11 11 10 8 5 6 -7 -15 -17 -15 -15 -17 -19 -18 -15 -13 -11 -10 -8 -7 -7 -7 -7 -7 -7 -6 -6 -5 -4 -1
6 8 11 11 10 10 12 12 12 12 12 12 12 12 11 11 11 8 0 -13 -16 -16 -15 -16 -17 -17 -14 -11 -10 -9 -8 -8 -9 -8 -7 -7 -7 -7 -7 -7 -1 1 2
7 9 12 12 11 12 13 13 13 12 12 11 11 11 12 11 10 3 -7 -17 -17 -14 -15 -15 -15 -14 -11 -9 -9 -9 -9 -8 -8 -7 -7 -7 -7 -6 -6 -6 -6 -3 0
8 9 11 12 12 12 14 13 13 12 12 12 12 12 12 11 6 -8 -15 -15 -16 -15 -12 -12 -14 -12 -10 -9 -9 -8 -8 -7 -7 -6 -6 -6 -5 -5 -5 -5 -5 -2 0
10 10 10 12 12 11 12 13 13 13 11 11 12 12 11 8 1 -17 -16 -11 -11 -12 -12 -13 -13 -9 -9 -9 -8 -7 -6 -6 -6 -5 -5 -5 -4 -4 -4 -4 -5 -4 -3
11 11 11 12 13 13 13 13 13 13 12 11 12 11 7 4 -16 -17 -18 -15 -7 -4 -7 -10 -10 -9 -8 -8 -6 -7 -7 -6 -5 -4 -4 -3 -3 -3 -3 -4 -4 -4 -3
12 11 12 13 12 12 12 12 12 12 12 12 11 9 8 -14 -17 -18 -14 -11 -9 -3 -3 -6 -7 -8 -7 -6 -6 -6 -5 -4 -4 -3 -3 -2 -2 -3 -3 -3 -4 -4 -4
12 11 12 12 12 11 12 13 12 12 12 11 8 5 -13 -17 -18 -12 -11 -11 -9 -7 -4 -5 -5 -7 -5 -6 -6 -5 -4 -3 -3 -2 -2 -2 -3 -3 -2 -3 -3 -4 -4
12 12 12 12 12 12 12 13 12 12 11 10 7 -11 -17 -17 -10 -11 -10 -9 -8 -7 -7 -7 -6 -5 -5 -5 -5 -4 -3 -3 -2 -2 -3 -3 -3 -2 -2 -1 -2 -3 -4
13 12 11 13 13 12 13 13 12 11 9 3 -6 -16 -17 -9 -11 -10 -9 -8 -7 -7 -6 -6 -5 -5 -5 -4 -4 -3 -3 -3 -3 -3 -3 -2 -2 -2 -1 -1 -0 -0 -2
14 12 12 13 13 13 12 11 9 9 5 -0 -13 -17 -9 -10 -9 -9 -8 -7 -7 -7 -6 -5 -5 -5 -4 -4 -4 -3 -3 -3 -3 -3 -3 -3 -3 -2 -2 -2 -2 -1 -1
13 12 13 13 13 13 11 10 9 7 6 -9 -16 -10 -10 -9 -9 -8 -7 -7 -7 -7 -5 -5 -5 -5 -3 -3 -3 -3 -3 -3 -3 -3 -3 -2 -3 -2 -2 -2 -1 -1 -1
14 13 13 13 12 11 11 9 8 5 -10 -14 -10 -9 -7 -9 -8 -7 -7 -7 -7 -6 -5 -5 -5 -4 -3 -3 -3 -3 -3 -3 -4 -3 -3 -3 -3 -3 -2 -1 -1 -1 -1
13 13 12 12 11 10 8 8 0 -10 -10 -10 -8 -6 -9 -7 -7 -7 -7 -7 -6 -5 -5 -5 -4 -3 -3 -3 -3 -3 -3 -2 -2 -2 -3 -3 -3 -2 -1 -0 0 -0 -1
12 12 12 11 9 8 8 0 -6 -9 -10 -8 -5 -9 -8 -7 -7 -7 -7 -7 -6 -6 -6 -5 -4 -3 -3 -3 -3 -3 -3 -2 -2 -2 -3 -3 -3 -3 -3 -1 1 0 -0
12 12 11 10 9 7 4 1 -7 -11 -9 -6 -8 -7 -7 -6 -7 -7 -6 -6 -6 -6 -5 -4 -3 -3 -3 -3 -3 -3 -3 -2 -3 -2 -3 -3 -3 -3 -3 -2 0 1 1
11 11 10 8 7 5 4 -5 -13 -9 -6 -8 -7 -6 -6 -7 -7 -7 -6 -6 -6 -5 -5 -4 -3 -3 -3 -2 -3 -3 -3 -3 -3 -2 -3 -3 -3 -4 -3 -2 -1 0 0
11 9 8 6 6 4 -4 -12 -9 -6 -7 -7 -6 -6 -7 -7 -6 -6 -6 -6 -6 -6 -5 -4 -3 -3 -3 -3 -3 -3 -3 -3 -3 -3 -3 -3 -3 -4 -4 -3 -2 -1 0

GFSMA_850_dewp_234.txt.gz
Dewpoint
6 6 11 11 10 10 8 6 9 5 5 5 6 7 8 9 10 11 12 11 11 9 9 9 10 10 10 10 10 10 10 9 9 8 8 6 6 9 11 11 11 10 10
8 6 8 9 11 11 10 10 10 10 10 11 9 9 11 13 13 12 13 13 10 10 10 10 9 9 8 8 7 6 6 2 -3 -6 -7 -7 -6 -1 4 7 10 10 10
8 7 9 9 10 10 10 10 11 10 13 13 13 13 13 13 14 13 13 13 13 10 10 11 10 7 -1 -9 -10 -11 -11 -11 -9 -7 -5 -3 -3 -3 -2 -1 2 4 8
8 8 10 11 11 10 9 11 12 13 14 14 14 14 14 13 13 13 12 12 13 12 12 11 10 7 -5 -14 -13 -11 -10 -9 -10 -11 -11 -11 -10 -6 -3 -2 -2 -0 1
8 8 11 12 9 9 11 12 13 13 14 14 14 13 13 13 13 13 12 12 12 12 12 11 10 -3 -13 -11 -12 -14 -15 -17 -18 -20 -20 -20 -18 -17 -16 -12 -8 -2 2
7 7 11 13 10 11 12 12 13 14 13 13 13 14 13 13 13 13 13 12 12 12 12 10 -7 -5 -11 -13 -14 -16 -18 -20 -21 -21 -20 -19 -17 -16 -14 -13 -12 -11 -9
6 7 9 12 9 12 13 13 13 13 12 12 13 13 13 13 11 12 11 11 10 11 2 -13 -11 -13 -10 -13 -14 -13 -17 -18 -18 -17 -16 -15 -14 -14 -13 -12 -11 -9 -8
7 7 9 12 11 13 13 13 13 13 12 12 13 13 12 12 11 10 10 10 8 -8 -12 -15 -16 -14 -14 -15 -14 -15 -16 -15 -13 -11 -10 -9 -9 -9 -9 -9 -9 -8 -8
10 7 7 10 11 10 13 13 13 13 12 12 12 12 12 10 9 7 6 6 6 -5 -15 -15 -14 -13 -13 -12 -10 -8 -13 -11 -10 -10 -9 -9 -9 -9 -9 -9 -8 -8 -8
11 9 7 8 9 10 12 13 13 13 13 12 12 12 11 10 10 10 8 8 2 -10 -15 -15 -14 -12 -10 -10 -11 -12 -11 -10 -10 -9 -9 -9 -8 -8 -8 -7 -7 -6 -4
11 11 8 8 8 10 11 13 13 13 12 12 12 12 11 12 11 11 10 5 1 -4 -11 -12 -10 -10 -11 -14 -11 -9 -9 -9 -8 -7 -7 -7 -6 -6 -6 -5 -5 -4 -1
10 11 10 8 8 11 11 12 13 12 12 12 12 11 11 11 11 11 8 4 -1 -1 -10 -9 -10 -12 -14 -11 -9 -10 -9 -8 -7 -7 -7 -6 -6 -5 -5 -4 -4 -3 -2
7 8 11 9 8 11 12 12 14 13 13 12 11 11 12 12 12 8 4 -1 -2 -2 -4 -8 -9 -13 -10 -9 -8 -8 -7 -8 -8 -7 -5 -4 -4 -3 -3 -3 -2 -2 -2
4 7 11 10 9 11 12 14 14 14 13 12 12 13 13 12 11 7 -2 -3 -3 -1 -0 -1 -2 -7 -8 -8 -7 -8 -7 -7 -6 -5 -5 -3 -2 -3 -3 -2 -2 -2 -3
9 9 11 11 11 12 12 12 11 12 12 13 12 13 12 11 9 4 -15 -16 -4 -3 -3 -2 -3 -3 -5 -7 -6 -7 -7 -6 -6 -5 -4 -2 -3 -3 -3 -2 -1 -1 -2
11 13 12 13 13 12 12 13 13 13 13 13 12 12 10 9 8 -13 -16 -12 -10 -7 -2 -3 -2 -1 -5 -7 -6 -6 -5 -6 -5 -4 -3 -3 -3 -3 -2 -2 -1 -2 -1
14 14 13 13 13 13 13 13 12 13 13 13 12 10 9 7 -6 -16 -13 -10 -9 -9 -2 -2 -2 -1 -4 -5 -6 -5 -5 -5 -5 -4 -3 -3 -3 -3 -3 -2 -2 -2 -2
14 14 14 14 14 14 13 11 11 12 13 12 10 8 8 3 -12 -14 -9 -9 -10 -7 -5 -1 -4 -4 -4 -6 -5 -5 -5 -4 -4 -4 -4 -3 -3 -3 -3 -3 -3 -3 -2
14 14 14 14 14 14 12 12 12 13 13 11 9 9 7 -8 -15 -9 -9 -10 -8 -6 -4 -6 -6 -5 -5 -5 -4 -5 -5 -5 -5 -4 -4 -3 -3 -3 -3 -3 -2 -3 -3
13 13 13 14 14 13 12 13 13 12 10 9 9 8 4 -14 -9 -8 -9 -9 -7 -6 -7 -7 -5 -5 -5 -4 -4 -4 -5 -5 -4 -4 -4 -3 -3 -3 -3 -2 -1 -1 -0
13 13 13 14 13 13 13 13 12 11 10 9 8 0 -14 -10 -8 -9 -9 -8 -7 -7 -7 -6 -5 -6 -4 -3 -4 -4 -4 -4 -4 -4 -4 -4 -3 -3 -3 -4 -2 -0 0
13 13 13 13 13 13 13 12 12 10 9 8 4 -14 -10 -8 -8 -9 -7 -7 -7 -7 -6 -6 -6 -5 -4 -3 -3 -3 -3 -3 -3 -3 -3 -4 -3 -3 -4 -4 -2 -1 1
12 12 13 13 12 12 12 11 9 8 8 -1 -12 -10 -9 -6 -8 -8 -7 -7 -7 -7 -7 -6 -6 -5 -4 -4 -3 -3 -3 -3 -3 -3 -3 -4 -4 -4 -4 -2 -0 -0 -0
12 12 12 12 12 11 11 9 8 8 -6 -7 -10 -9 -6 -8 -8 -7 -7 -7 -7 -7 -7 -7 -6 -4 -4 -3 -3 -3 -3 -3 -3 -3 -3 -3 -4 -4 -4 -2 -1 -1 0
11 12 12 11 11 10 9 7 8 -1 -5 -11 -9 -6 -7 -7 -7 -7 -7 -7 -6 -6 -6 -6 -5 -5 -3 -3 -3 -3 -3 -3 -4 -4 -3 -3 -3 -4 -4 -3 -2 -1 -0
10 10 11 11 10 9 7 7 3 -1 -12 -9 -6 -7 -7 -6 -7 -7 -6 -6 -6 -6 -6 -5 -5 -4 -3 -4 -4 -4 -4 -4 -4 -3 -3 -3 -3 -3 -4 -3 -3 -2 -1

GFSMA_850_dewp_237.txt.gz
Dewpoint
12 12 11 11 10 10 9 10 9 9 10 10 9 10 11 11 10 9 11 12 11 10 9 9 9 9 10 10 10 9 9 8 8 7 5 3 0 -1 -1 0 5 9 10
12 12 11 12 11 11 11 11 11 11 11 11 12 12 12 11 12 12 12 12 13 10 9 10 10 9 9 7 5 1 -4 -6 -8 -9 -10 -9 -8 -7 -5 -4 -4 -2 1
13 13 12 12 12 12 12 12 12 12 12 13 13 13 13 13 13 13 13 13 13 12 10 10 11 11 10 7 -3 -11 -13 -11 -10 -10 -9 -10 -10 -11 -11 -8 -6 -3 -1
14 13 13 12 12 12 13 12 13 13 13 12 12 12 13 13 13 14 13 14 14 13 13 12 11 11 10 4 -12 -12 -11 -12 -12 -13 -15 -17 -19 -20 -19 -18 -17 -14 -11
14 14 14 13 13 13 13 13 13 13 12 13 13 12 13 14 13 14 14 14 14 13 13 12 11 10 4 -12 -11 -12 -11 -11 -12 -14 -16 -18 -18 -18 -17 -16 -16 -16 -14
13 14 14 13 13 13 13 13 13 13 13 14 14 13 13 13 13 13 13 12 12 13 12 12 10 -3 -9 -12 -12 -10 -9 -10 -11 -13 -15 -15 -15 -15 -14 -13 -12 -11 -11
11 12 13 14 13 13 13 13 13 13 13 13 13 14 14 13 13 13 12 12 12 12 10 9 -8 -0 -1 -7 -9 -7 -7 -7 -9 -13 -15 -14 -13 -11 -11 -10 -10 -10 -11
10 9 9 13 14 14 13 13 13 13 13 13 14 13 13 13 13 12 12 11 11 9 4 -1 -4 -12 -12 -10 -2 -7 -7 -9 -15 -16 -12 -11 -11 -11 -10 -10 -9 -9 -8
12 12 12 10 13 13 13 13 13 13 14 13 13 13 12 11 11 10 9 8 6 6 2 0 -3 -6 -8 -7 -4 -4 -10 -15 -12 -11 -11 -10 -10 -9 -9 -8 -8 -6 -5
12 12 13 12 12 12 13 13 13 13 13 13 13 13 12 10 10 9 7 7 9 8 3 -2 -0 -4 -8 -6 -5 -11 -14 -11 -10 -10 -9 -9 -9 -8 -8 -8 -7 -6 -4
14 13 13 13 12 12 12 13 13 13 13 13 13 12 12 11 10 10 11 9 8 4 1 1 -6 -9 -5 -6 -11 -9 -11 -9 -9 -9 -9 -9 -8 -6 -6 -5 -5 -4 -4
15 14 14 14 14 12 12 11 13 13 12 13 14 13 12 11 11 11 11 11 9 3 1 1 -5 -4 -5 -10 -9 -10 -9 -9 -9 -9 -8 -7 -7 -6 -5 -3 -3 -3 -2
15 13 14 14 14 13 12 10 12 13 12 13 13 13 13 12 11 11 11 10 7 2 0 -1 -2 -4 -6 -9 -7 -9 -9 -9 -9 -8 -7 -7 -6 -4 -3 -3 -3 -3 -2
14 13 13 14 14 14 13 10 13 13 13 13 13 13 12 11 11 12 11 9 3 -0 -0 0 1 -1 -5 -7 -7 -9 -9 -8 -8 -6 -6 -6 -4 -3 -3 -3 -3 -3 -3
15 14 14 14 14 14 14 14 14 14 13 13 14 13 12 12 12 12 11 8 -3 -2 -1 -0 -1 -1 -2 -4 -7 -9 -8 -7 -6 -6 -6 -4 -4 -4 -4 -4 -3 -3 -3
14 15 14 13 14 14 14 14 14 14 14 13 14 13 13 13 12 11 9 5 -10 -5 -1 -2 -1 -0 -1 -4 -4 -7 -7 -6 -6 -6 -6 -5 -5 -4 -4 -4 -4 -3 -3
15 14 14 13 14 15 15 15 14 14 14 12 13 13 13 12 12 10 8 -6 -12 -7 -4 -2 -1 -0 -1 -4 -6 -7 -5 -5 -5 -6 -6 -5 -5 -5 -5 -5 -4 -3 -3
14 14 15 14 15 15 14 15 14 14 13 12 13 13 12 12 10 8 4 -6 -10 -7 -6 -3 -0 -1 -2 -4 -6 -6 -4 -5 -6 -6 -5 -5 -5 -5 -5 -6 -4 -3 -2
13 14 13 14 15 14 15 15 14 13 13 12 13 12 12 11 10 6 1 -12 -7 -7 -5 -4 -4 -3 -5 -5 -6 -5 -5 -5 -6 -6 -5 -5 -5 -6 -5 -6 -5 -4 -2
14 14 13 13 13 14 14 14 13 13 13 12 13 12 11 9 4 -2 -13 -8 -7 -6 -3 -6 -6 -6 -6 -6 -5 -5 -5 -5 -5 -5 -5 -5 -5 -5 -5 -5 -5 -2 -2
13 13 12 12 13 13 13 13 13 13 12 12 12 10 9 6 6 -5 -9 -7 -6 -6 -7 -5 -5 -5 -6 -6 -5 -4 -4 -4 -5 -4 -5 -4 -5 -5 -5 -5 -3 -2 -1
12 13 11 12 13 12 13 13 13 13 12 12 11 10 9 8 -4 -12 -8 -8 -9 -7 -5 -4 -2 -3 -4 -4 -4 -4 -4 -4 -3 -4 -4 -4 -4 -4 -5 -4 -2 -2 -1
13 13 13 13 13 12 12 12 12 13 12 11 10 9 8 -2 -13 -9 -6 -9 -8 -7 -7 -7 -5 -4 -4 -4 -4 -4 -3 -3 -3 -3 -3 -4 -4 -4 -5 -3 -3 -3 -2
12 12 12 12 12 12 12 12 12 12 11 10 9 8 -3 -13 -9 -6 -8 -8 -6 -7 -7 -7 -6 -6 -5 -5 -4 -3 -3 -4 -4 -3 -3 -3 -4 -4 -5 -4 -4 -4 -3
10 10 11 11 11 10 11 11 11 9 9 8 7 -6 -10 -9 -6 -7 -8 -6 -7 -6 -7 -7 -7 -6 -6 -5 -4 -4 -4 -5 -4 -4 -3 -3 -4 -4 -4 -4 -4 -4 -3
9 9 9 9 10 10 10 9 8 8 8 6 -8 -9 -9 -6 -7 -8 -7 -7 -6 -6 -7 -7 -6 -6 -6 -5 -5 -5 -5 -5 -5 -4 -4 -5 -4 -4 -3 -3 -4 -4 -4

GFSMA_850_dewp_243.txt.gz
Dewpoint
-3 -3 -3 -2 -3 -3 -3 -2 -2 -2 -2 -0 5 7 8 7 7 8 10 9 10 11 11 11 9 8 8 8 8 8 6 4 -1 -6 -9 -10 -10 -9 -9 -10 -11 -12 -13
0 1 2 1 4 1 -1 -0 -0 1 1 1 4 7 9 8 6 8 10 9 10 12 12 12 9 8 8 9 10 9 6 -0 -7 -12 -11 -10 -10 -9 -9 -9 -10 -11 -13
2 4 7 5 5 7 5 5 5 5 6 9 7 7 7 8 10 11 11 11 12 12 12 12 11 10 10 11 11 10 8 -3 -12 -11 -10 -9 -8 -7 -8 -9 -11 -14 -15
5 6 9 9 8 10 9 10 10 10 10 10 10 10 11 12 12 12 12 12 12 12 12 12 12 11 12 11 10 10 -1 -11 -11 -9 -7 -6 -7 -9 -12 -13 -13 -13 -13
10 8 9 10 11 11 11 11 12 11 11 11 11 12 13 11 12 12 12 12 13 12 12 12 12 12 12 11 8 -6 -10 -11 -9 -7 -6 -7 -10 -11 -11 -11 -11 -12 -12
13 12 10 10 11 11 12 12 12 12 12 11 12 12 12 13 12 12 12 12 12 11 11 11 11 11 11 10 -2 -6 -10 -8 -6 -6 -7 -9 -10 -9 -10 -12 -13 -13 -12
12 13 12 11 12 11 11 12 12 12 12 12 12 12 12 12 12 12 12 12 11 12 11 11 11 12 10 4 -2 -7 -10 -7 -5 -7 -9 -9 -9 -11 -13 -13 -12 -12 -11
12 13 13 11 10 11 11 11 12 12 12 12 12 12 12 12 13 12 12 12 11 11 11 11 11 11 9 1 -1 -7 -8 -6 -6 -9 -9 -9 -12 -12 -12 -12 -11 -10 -10
13 12 12 12 11 11 12 12 12 12 11 12 13 12 13 12 12 11 11 12 12 12 11 12 11 10 4 3 -0 -6 -8 -5 -8 -9 -9 -11 -12 -12 -11 -11 -10 -10 -10
13 12 10 11 12 10 11 12 12 11 12 11 12 13 12 11 12 12 12 13 13 12 12 11 10 6 3 3 2 -6 -7 -5 -9 -9 -10 -11 -11 -11 -10 -10 -10 -10 -8
12 13 12 12 12 12 10 11 12 12 11 11 11 11 13 12 12 11 11 13 13 12 11 10 7 7 5 3 1 -5 -4 -7 -9 -9 -10 -11 -11 -10 -9 -9 -9 -7 -7
13 13 12 12 12 12 11 11 12 13 12 12 11 11 10 11 12 12 10 10 11 9 9 7 8 5 3 2 2 -5 -5 -7 -9 -9 -10 -11 -10 -10 -9 -8 -7 -7 -7
14 14 13 13 13 13 13 12 13 14 14 13 12 11 12 11 10 11 12 10 9 8 9 8 5 4 2 1 -3 -3 -4 -6 -8 -9 -10 -10 -8 -8 -9 -7 -7 -7 -8
14 14 13 13 13 13 13 14 14 13 14 14 13 12 12 11 11 11 11 11 10 10 10 9 6 3 2 -0 0 -1 -4 -6 -8 -9 -10 -9 -8 -8 -7 -7 -7 -7 -8
15 15 15 15 14 14 14 14 14 14 14 14 14 14 13 12 12 12 12 12 11 11 10 6 4 2 1 1 1 -2 -4 -7 -8 -9 -9 -8 -7 -8 -7 -7 -7 -7 -7
13 14 14 15 16 16 16 15 15 15 15 15 14 14 14 14 13 14 13 13 12 11 10 5 2 1 1 1 -0 -2 -5 -7 -8 -9 -8 -8 -7 -7 -7 -6 -6 -7 -7
13 13 14 15 15 15 15 16 15 15 15 14 13 14 14 14 14 13 13 13 12 11 11 8 2 2 2 0 -2 -3 -6 -8 -8 -8 -9 -7 -7 -6 -6 -6 -6 -6 -6
12 13 14 14 15 15 15 15 15 15 14 14 14 14 15 14 14 13 13 13 11 11 11 6 3 0 -1 -2 -2 -6 -7 -8 -8 -8 -8 -7 -6 -6 -5 -6 -5 -6 -6
14 13 14 14 14 14 14 15 14 15 14 14 13 13 14 14 14 13 13 11 11 12 10 9 1 -2 -2 -4 -7 -7 -8 -7 -8 -8 -8 -6 -6 -5 -5 -5 -5 -5 -5
14 14 13 14 14 14 14 14 14 14 14 14 14 14 14 14 14 13 13 12 12 11 9 5 -3 -5 -5 -6 -7 -8 -7 -8 -8 -8 -8 -6 -6 -5 -5 -5 -5 -5 -5
11 13 14 15 14 13 13 13 13 14 13 13 15 14 14 14 13 13 12 11 11 10 6 2 -5 -6 -7 -7 -8 -6 -7 -9 -8 -9 -9 -7 -7 -6 -5 -5 -5 -5 -6
11 12 12 12 14 13 13 13 13 13 11 12 13 14 14 13 13 12 11 10 10 10 6 -3 -6 -7 -7 -7 -6 -7 -8 -8 -8 -8 -10 -8 -7 -6 -6 -6 -5 -5 -5
2 6 11 12 11 11 12 12 12 12 12 12 12 13 13 13 13 11 10 8 5 1 -4 -6 -6 -8 -6 -6 -6 -8 -8 -8 -8 -8 -9 -9 -8 -8 -8 -6 -4 -5 -5
-1 1 8 9 11 11 12 11 11 11 13 12 11 12 12 13 12 11 9 6 1 -2 -6 -6 -7 -7 -6 -6 -7 -7 -8 -8 -7 -7 -8 -9 -9 -9 -8 -5 -5 -6 -6
-3 -4 -1 7 10 11 11 11 11 12 11 11 11 12 12 11 11 9 8 4 1 -4 -6 -7 -7 -6 -6 -7 -7 -7 -8 -8 -8 -8 -7 -8 -8 -9 -9 -6 -7 -6 -6
-5 -8 -10 -4 6 9 10 10 10 10 10 11 11 10 10 9 9 7 6 4 -3 -6 -5 -4 -5 -6 -7 -7 -7 -7 -7 -8 -9 -8 -8 -8 -8 -8 -7 -6 -6 -6 -6

GFSMA_850_dewp_246.txt.gz
Dewpoint
-5 -5 -5 -5 -4 -4 -4 -4 -4 -4 -3 -3 -3 2 4 4 5 6 7 8 8 9 11 11 11 10 8 7 8 7 6 4 2 -3 -9 -11 -10 -9 -8 -8 -8 -8 -8
-4 -4 -4 -4 -3 -3 -3 -3 -2 -2 -2 -2 -1 2 3 5 6 6 7 9 10 10 11 12 11 10 8 8 9 10 10 8 5 -2 -12 -10 -9 -8 -7 -6 -7 -9 -11
-2 -2 -2 -2 -1 0 1 -1 -1 -0 1 1 1 4 5 6 7 7 9 9 11 11 12 12 12 11 10 10 10 11 10 10 4 -11 -11 -9 -7 -6 -7 -9 -9 -9 -10
1 1 1 2 3 3 5 4 2 4 3 6 6 8 8 8 10 12 12 11 11 11 12 12 12 12 11 12 12 10 10 9 -10 -11 -9 -6 -6 -7 -8 -9 -9 -12 -14
5 4 4 4 6 6 6 7 6 7 8 8 8 9 10 11 11 12 11 11 11 12 12 12 11 11 12 11 11 10 5 -9 -10 -9 -7 -6 -8 -8 -8 -10 -13 -13 -13
6 6 6 5 7 8 7 8 9 9 9 9 10 10 10 11 12 11 11 11 12 12 12 11 11 11 11 11 11 9 -3 -6 -10 -7 -5 -8 -9 -8 -9 -12 -12 -13 -13
8 8 7 7 7 9 8 7 9 11 11 11 12 11 11 12 12 12 12 12 12 12 12 11 11 11 11 11 10 7 -1 -6 -8 -7 -6 -9 -8 -9 -11 -12 -12 -12 -13
11 11 9 8 8 9 10 9 10 11 12 12 12 12 12 12 12 11 12 12 12 12 11 12 11 11 11 11 10 4 1 -3 -7 -6 -7 -9 -8 -10 -11 -11 -12 -12 -11
12 12 12 10 11 10 9 10 10 11 12 12 12 12 13 12 12 11 11 11 12 12 11 12 12 11 11 11 10 4 2 -1 -6 -5 -8 -8 -8 -10 -11 -11 -11 -11 -11
13 13 12 13 12 11 11 9 10 11 12 12 12 12 12 11 11 10 10 9 12 12 11 12 13 13 12 11 8 6 5 1 -6 -6 -8 -8 -8 -10 -11 -11 -11 -11 -10
12 13 14 13 13 13 12 12 11 11 12 12 12 12 12 13 12 12 11 10 10 12 12 12 12 12 11 10 8 6 3 2 -5 -6 -8 -8 -9 -9 -11 -11 -10 -10 -9
10 12 13 13 13 13 13 12 12 12 12 13 13 12 12 12 13 13 12 11 11 11 12 12 11 11 10 8 7 4 3 -3 -4 -6 -8 -8 -8 -9 -10 -10 -10 -9 -9
8 7 7 9 12 13 13 13 13 13 12 12 13 13 12 12 12 12 13 12 11 11 12 11 10 9 7 7 5 3 2 -2 -2 -7 -8 -7 -8 -10 -10 -10 -9 -9 -9
9 9 10 10 11 12 13 13 14 14 13 13 13 13 13 13 13 13 13 12 12 10 10 9 8 6 7 5 2 2 -0 -0 -3 -7 -7 -8 -9 -9 -9 -9 -9 -9 -9
12 12 13 12 13 13 14 14 14 14 14 14 13 14 14 14 14 13 13 13 13 11 9 8 8 8 7 5 2 1 1 0 -3 -7 -7 -8 -9 -9 -8 -8 -8 -8 -8
14 14 13 12 14 14 15 15 15 15 15 15 14 14 14 15 14 14 14 14 14 13 11 10 10 9 8 6 5 2 1 -1 -4 -7 -8 -8 -9 -8 -7 -7 -7 -7 -8
12 10 10 11 11 13 13 14 15 15 15 15 15 15 15 15 15 13 14 14 14 13 13 12 11 9 8 5 3 1 2 -2 -5 -7 -7 -8 -8 -8 -7 -6 -7 -7 -7
11 10 9 10 11 13 13 13 13 14 14 13 14 13 14 15 14 13 14 14 14 13 13 12 9 9 5 3 2 1 -0 -2 -6 -7 -7 -8 -8 -7 -8 -7 -7 -6 -6
10 9 11 12 13 13 13 13 14 14 14 13 13 13 14 14 14 13 13 13 14 13 13 11 11 6 5 3 5 1 -2 -4 -7 -7 -7 -9 -8 -8 -7 -8 -7 -5 -6
10 11 11 11 11 12 12 12 12 13 13 13 13 13 13 14 15 14 13 13 13 13 12 12 10 7 5 6 1 -1 -3 -7 -7 -7 -8 -8 -8 -8 -8 -8 -6 -7 -7
4 10 10 10 11 10 11 12 12 12 12 12 13 14 14 13 14 14 14 12 12 13 11 10 8 5 6 3 -0 -3 -6 -7 -7 -8 -9 -8 -9 -9 -7 -7 -8 -8 -8
-3 -1 2 9 11 11 11 13 14 14 14 13 13 12 11 11 12 13 13 13 14 13 12 10 8 6 2 -0 -3 -6 -7 -6 -8 -8 -9 -9 -9 -8 -8 -9 -9 -8 -7
-3 -3 -2 0 2 10 11 12 11 11 12 13 13 12 12 11 12 11 12 13 12 12 11 10 9 4 2 -4 -5 -6 -6 -7 -8 -9 -10 -11 -10 -9 -10 -9 -7 -8 -8
-2 -3 -3 -5 -2 4 5 8 10 10 10 10 12 12 12 13 12 12 12 11 10 10 9 7 4 1 -3 -5 -5 -5 -7 -8 -8 -9 -10 -11 -10 -10 -11 -8 -8 -10 -8
-3 -2 -3 -4 -9 -9 2 9 10 10 11 10 12 11 10 12 11 11 11 11 9 8 6 3 0 -1 -2 -3 -5 -6 -7 -7 -9 -9 -9 -10 -11 -12 -11 -9 -9 -8 -7
-4 -2 -2 -3 -6 -11 -11 3 8 10 10 10 10 10 11 11 11 11 10 10 7 5 3 2 1 -1 -3 -2 -2 -5 -7 -8 -9 -10 -9 -9 -10 -11 -12 -9 -7 -7 -7

GFSMA_850_dewp_249.txt.gz
Dewpoint
-6 -6 -6 -5 -6 -6 -6 -6 -6 -5 -5 -5 -5 -5 -3 -3 -4 1 4 5 7 7 9 11 11 11 10 8 7 7 6 7 6 5 1 -6 -11 -10 -9 -8 -7 -7 -8
-6 -6 -6 -6 -5 -5 -5 -4 -4 -4 -4 -3 -3 -3 1 4 4 5 6 7 8 9 10 10 12 12 10 8 8 8 10 10 10 8 2 -11 -10 -9 -7 -6 -7 -7 -8
-5 -5 -5 -5 -5 -4 -3 -3 -3 -2 -2 -2 -2 -1 2 5 6 6 6 7 9 10 11 11 12 12 12 10 10 10 11 10 10 9 -10 -10 -9 -6 -6 -8 -7 -7 -10
-4 -4 -4 -3 -3 -2 -1 1 -1 -1 -0 0 1 1 2 4 6 7 8 10 11 11 11 11 12 12 11 11 11 11 11 10 9 -4 -10 -9 -6 -5 -7 -7 -7 -10 -11
-2 -2 -1 -0 -0 1 1 3 4 3 1 3 3 5 7 8 9 10 11 12 11 11 11 11 12 11 11 11 11 11 10 10 0 -7 -9 -7 -5 -7 -8 -7 -8 -10 -10
1 1 2 2 2 3 4 4 4 5 4 6 7 8 8 9 10 11 12 11 11 11 11 12 12 12 11 11 11 11 11 9 -2 -5 -8 -7 -6 -8 -7 -7 -8 -9 -10
3 4 4 4 4 4 5 5 6 6 7 8 10 10 10 10 10 10 11 12 11 11 11 12 12 12 11 11 11 11 10 9 1 -0 -7 -6 -6 -8 -7 -7 -8 -9 -11
5 5 5 5 5 5 5 6 8 8 8 10 11 11 11 11 10 10 11 11 11 12 12 12 12 12 12 11 11 11 10 9 2 2 -5 -6 -7 -8 -7 -7 -8 -9 -11
5 6 8 7 7 8 6 6 8 9 9 10 11 11 12 12 11 8 9 11 11 11 12 12 12 12 12 12 12 11 11 7 4 3 -3 -5 -7 -8 -7 -7 -8 -10 -11
5 6 10 11 10 10 10 8 9 10 11 11 12 12 12 11 11 10 10 8 10 11 11 12 12 12 12 13 13 12 11 6 5 3 -0 -5 -7 -8 -7 -6 -8 -10 -11
6 4 7 10 11 12 12 12 12 12 11 12 11 12 12 12 12 12 12 12 11 10 10 12 12 12 12 13 13 12 10 6 5 3 -2 -4 -7 -8 -6 -6 -8 -10 -11
8 9 7 7 9 11 12 13 13 13 13 12 12 12 12 12 12 13 13 13 13 12 11 10 11 12 12 12 12 12 9 6 4 4 -2 -3 -7 -7 -6 -7 -9 -10 -10
8 8 10 10 9 8 10 11 12 13 13 13 13 13 12 13 13 13 13 13 12 12 12 11 11 11 12 12 12 10 7 8 4 3 -1 -2 -7 -7 -6 -7 -9 -10 -10
11 12 9 9 10 12 12 12 13 11 13 13 13 14 14 14 13 13 13 13 13 13 13 12 11 11 11 10 8 5 4 6 4 3 0 -2 -7 -7 -6 -7 -9 -10 -9
9 13 13 11 11 10 11 12 12 12 13 13 14 14 14 14 14 14 14 14 13 13 12 12 11 11 11 10 8 7 6 5 3 2 1 -2 -7 -7 -6 -8 -9 -10 -9
6 9 10 12 12 13 13 13 13 12 13 12 12 12 14 14 14 14 14 14 14 14 13 12 12 11 10 9 8 7 9 6 3 2 1 -2 -7 -7 -7 -8 -8 -8 -8
11 12 13 12 12 12 11 9 9 9 11 12 11 12 12 13 14 14 14 14 14 13 13 13 12 11 8 10 9 9 7 6 2 5 1 -4 -7 -7 -8 -9 -7 -7 -7
12 12 12 13 13 14 12 11 10 10 12 11 14 14 12 12 12 12 13 13 13 12 12 13 13 11 11 10 8 9 7 3 3 3 -1 -5 -7 -7 -8 -9 -6 -8 -9
11 12 13 13 14 13 11 10 12 12 12 12 13 14 13 12 12 13 13 14 12 13 13 13 13 12 11 9 8 8 4 2 3 1 -2 -7 -6 -8 -9 -9 -9 -9 -10
3 6 8 10 11 11 12 11 10 10 11 12 13 13 12 12 12 13 13 13 13 13 13 13 12 11 10 10 9 8 3 2 3 -0 -5 -7 -7 -8 -9 -10 -9 -10 -11
-4 -3 -2 -0 4 9 10 11 10 8 8 10 12 13 13 13 13 14 14 13 13 13 12 12 11 11 10 10 10 6 2 3 1 -3 -7 -7 -8 -8 -9 -9 -9 -10 -11
-5 -4 -4 -4 -3 -2 2 8 11 10 8 6 11 12 12 12 12 11 11 11 11 12 12 12 12 11 11 9 8 4 3 1 -1 -5 -6 -6 -8 -8 -9 -10 -11 -12 -9
-7 -6 -6 -5 -4 -5 -6 2 9 12 11 10 11 11 12 12 13 12 12 12 12 12 11 11 11 11 10 10 8 4 2 -0 -3 -6 -3 -4 -9 -9 -10 -10 -12 -10 -9
-9 -4 -3 -4 -6 -6 -6 -9 -7 2 6 10 11 11 10 10 12 12 12 12 12 11 10 9 9 8 8 6 4 3 2 -4 -3 -0 -2 -7 -9 -9 -10 -10 -10 -10 -10
-7 -8 -6 -4 -3 -5 -6 -9 -12 -11 1 8 10 10 10 11 11 11 11 11 10 11 9 8 6 6 5 4 2 -1 -3 -2 -0 -1 -5 -7 -8 -10 -12 -9 -11 -8 -8
-6 -6 -6 -6 -1 -3 -5 -6 -9 -12 -13 0 7 9 9 10 10 10 10 10 10 9 7 7 6 4 2 0 -1 -1 1 1 1 -2 -2 -6 -9 -12 -11 -9 -9 -8 -8

GFSMA_850_dewp_255.txt.gz
Dewpoint
-6 -6 -6 -7 -7 -7 -6 -6 -3 -1 -2 -1 1 2 2 3 5 8 5 6 7 4 5 7 8 10 11 11 10 8 7 8 8 10 10 9 8 -5 -9 -9 -6 -5 -6
-6 -6 -6 -7 -7 -7 -7 -6 -6 -6 -4 -2 -2 -2 -3 -3 -3 -4 -4 -4 -0 2 6 7 8 10 11 11 11 9 8 8 9 10 10 9 8 -9 -9 -7 -5 -6 -6
-6 -6 -6 -6 -6 -6 -6 -6 -6 -6 -6 -5 -5 -5 -5 -5 -5 -4 0 1 2 4 6 6 9 10 10 12 11 11 11 10 11 10 10 9 -2 -8 -8 -6 -5 -6 -6
-6 -6 -6 -6 -5 -5 -5 -6 -5 -5 -5 -5 -5 -4 -4 -3 -3 -2 0 3 5 5 6 8 9 10 11 11 12 11 10 11 10 10 9 5 -5 -7 -7 -6 -5 -6 -7
-5 -5 -6 -5 -5 -4 -4 -4 -4 -4 -4 -4 -3 -3 -2 -2 -1 -1 0 4 5 7 7 10 11 11 11 11 11 11 11 11 10 10 10 7 -1 -1 -5 -5 -5 -6 -6
-4 -5 -5 -5 -5 -4 -4 -3 -3 -3 -2 -2 -1 -1 -1 -0 1 2 2 3 5 8 9 11 11 11 11 11 12 12 12 11 11 10 10 9 3 3 1 -4 -5 -6 -6
-4 -4 -5 -5 -5 -4 -4 -3 -2 -2 -0 2 6 5 3 1 3 4 6 6 8 9 10 11 11 11 11 11 12 12 12 11 11 10 10 10 7 6 5 1 -4 -6 -6
-4 -4 -5 -5 -4 -4 -3 -2 -2 0 2 3 7 9 9 8 5 6 7 7 7 8 9 10 11 11 12 12 12 12 12 12 12 11 11 11 9 6 4 1 -4 -6 -6
-4 -4 -4 -3 -3 -2 -2 -1 -0 0 2 5 7 9 11 10 9 7 7 8 8 9 9 8 9 11 11 11 12 12 12 12 12 12 12 11 10 6 5 2 -3 -6 -7
-3 -3 -3 -2 -1 -1 0 1 2 2 2 3 5 8 10 10 10 11 9 9 9 9 8 9 9 9 10 11 11 11 12 13 12 12 13 12 11 7 6 3 -1 -4 -7
-3 -2 -1 -1 -0 0 1 2 3 3 4 4 4 6 7 9 10 11 11 11 12 10 10 10 10 10 11 11 11 11 11 12 13 12 12 12 12 8 6 4 1 -1 -6
4 -0 -0 1 1 2 2 3 3 4 5 6 6 7 7 10 11 11 12 10 11 11 11 11 11 12 12 12 12 12 11 11 12 12 12 13 11 6 4 4 4 0 -4
11 10 5 3 3 3 4 4 5 6 7 10 11 11 12 12 11 12 13 13 13 12 13 13 11 12 12 12 12 12 12 11 12 12 12 11 8 6 4 4 1 0 -2
12 11 11 9 7 5 6 8 10 10 9 12 13 13 12 12 12 12 12 13 12 7 11 12 11 10 11 11 12 12 12 12 12 12 12 11 9 8 5 4 2 1 -2
13 13 13 12 12 11 11 12 12 13 14 14 14 13 14 13 12 11 11 13 11 11 12 12 11 7 8 9 11 12 12 12 12 12 12 11 8 8 6 5 3 3 -0
13 14 14 14 13 14 14 13 11 11 13 14 14 14 14 13 12 11 10 11 12 11 13 9 12 9 8 8 10 12 12 12 12 12 11 10 9 8 8 6 4 3 -2
14 14 14 14 14 14 12 9 7 7 8 7 10 8 8 8 7 10 10 8 10 12 13 13 13 11 10 10 11 11 12 11 11 11 10 9 8 8 7 4 2 5 -4
13 13 13 13 13 11 10 10 8 7 11 10 9 7 6 7 6 6 9 6 10 11 12 13 13 12 11 11 12 12 12 11 9 8 9 8 8 5 4 3 3 1 -6
6 9 12 12 12 12 10 10 8 8 11 11 11 6 6 10 10 10 10 10 11 13 14 13 13 13 13 13 13 12 12 11 8 7 8 8 6 6 2 2 2 -1 -7
-8 -5 -2 1 5 9 11 12 13 13 13 14 13 11 11 12 13 11 12 13 14 13 13 13 12 12 12 12 12 11 10 9 7 7 7 6 3 3 3 3 2 -3 -2
-10 -11 -12 -10 -6 -4 -3 -3 1 7 11 12 10 12 12 13 13 13 13 13 13 13 12 12 12 12 12 12 11 11 10 8 7 7 6 4 4 2 3 -0 -1 2 2
-8 -9 -9 -10 -11 -13 -11 -7 -6 -5 -6 1 8 12 11 11 11 12 12 13 12 13 13 12 12 12 12 12 11 11 10 8 6 5 4 3 2 2 -1 -1 1 2 0
-5 -6 -7 -7 -8 -9 -11 -12 -12 -9 -8 -8 -9 -5 4 10 11 11 11 12 12 12 12 12 12 12 12 11 11 10 9 8 7 5 2 2 2 0 -0 -0 1 -1 -10
-6 -5 -5 -6 -7 -7 -7 -8 -8 -9 -9 -9 -9 -10 -11 -9 -0 3 8 11 11 11 11 11 11 11 11 10 10 10 8 8 5 3 2 2 -0 -0 -0 -0 -3 -8 -11
-4 -4 -4 -4 -5 -6 -6 -7 -6 -6 -7 -10 -11 -11 -12 -13 -14 -5 2 6 9 9 10 9 10 10 10 10 9 9 8 7 3 1 1 -0 -1 -1 -1 -2 -6 -9 -10
-7 -6 -5 -4 -5 -5 -5 -6 -6 -5 -4 -7 -9 -11 -12 -13 -15 -14 -5 6 8 8 9 10 10 9 9 9 8 7 6 6 3 -0 -0 -0 0 -0 -2 -6 -8 -9 -9

GFSMA_850_dewp_258.txt.gz
Dewpoint
2 6 8 8 9 8 8 8 9 3 0 -0 5 6 7 8 8 8 7 8 7 8 7 4 6 7 9 10 10 10 9 7 7 8 9 9 9 8 -4 -8 -8 -5 -5
6 7 6 5 8 9 9 9 9 9 5 7 2 1 3 5 5 4 6 5 -2 -1 3 4 7 7 9 10 10 11 9 8 8 9 10 9 9 8 -7 -8 -7 -5 -5
2 2 8 2 2 7 7 8 8 7 9 8 8 7 -1 -2 -1 -1 3 6 6 0 1 4 6 7 9 10 11 11 11 10 10 10 10 10 9 3 -6 -7 -6 -5 -5
-3 -3 7 2 -1 -3 1 7 7 8 8 7 7 6 6 4 1 -4 -1 7 8 8 8 5 6 7 9 11 11 11 10 10 11 10 10 10 9 -0 -2 -2 -5 -5 -5
-5 -4 1 2 -4 -3 -1 3 6 7 7 7 6 7 7 6 6 5 5 5 8 5 8 10 8 9 10 11 11 11 11 11 11 10 10 10 9 6 2 2 -1 -3 -4
-2 -4 -1 2 -3 -0 3 4 4 6 5 7 6 5 6 6 6 6 6 6 7 9 8 10 10 10 11 11 11 11 11 12 12 11 11 10 10 9 5 5 4 0 -3
-0 -1 -2 -2 -3 -1 -3 -3 -2 0 8 2 8 8 8 8 2 5 7 8 8 9 10 11 10 11 11 11 11 11 11 12 12 12 11 11 11 10 9 6 6 4 -3
2 1 -2 -1 -1 1 -1 0 -2 1 3 8 8 7 9 8 9 10 9 8 10 10 10 12 11 10 12 12 11 10 11 11 12 12 12 12 11 11 11 8 6 5 0
7 2 0 0 5 -1 4 -3 -3 -3 7 7 4 8 8 9 8 10 13 12 11 12 12 11 12 12 11 9 11 11 10 11 11 12 12 12 12 12 11 10 6 5 3
1 2 2 1 1 3 -0 5 -0 -0 1 8 11 5 7 9 10 8 10 13 10 9 10 10 12 11 9 9 9 10 10 9 11 11 12 12 12 13 12 11 7 5 2
-1 -1 -1 -0 1 2 4 1 2 0 7 9 8 11 12 11 12 12 10 9 10 12 13 12 13 13 14 12 11 11 11 11 11 11 12 12 13 13 12 10 6 4 2
11 4 2 3 3 4 2 2 1 1 1 6 9 9 10 11 11 12 12 12 12 12 12 12 11 11 13 13 13 12 12 12 12 12 12 13 12 13 12 12 8 6 3
11 10 8 6 4 2 2 3 4 3 4 3 5 10 10 11 11 12 13 13 13 13 13 11 9 9 8 8 9 12 11 13 12 12 12 12 13 13 12 10 8 7 6
12 13 12 11 11 10 7 5 4 4 6 5 5 8 9 13 13 13 13 13 14 13 13 12 9 7 8 7 7 8 11 13 12 12 12 12 13 13 11 9 8 8 6
13 14 13 13 12 12 12 10 10 7 8 9 11 11 13 14 14 14 13 13 14 13 13 12 10 8 7 7 8 8 12 11 12 12 12 12 12 10 9 8 9 8 6
14 13 13 13 13 13 13 12 12 12 12 13 13 13 13 13 12 11 11 10 11 12 13 9 7 8 9 8 10 10 10 10 9 12 12 12 12 10 9 9 8 7 6
13 14 14 13 14 14 14 13 13 14 14 10 7 8 8 7 6 7 7 7 8 8 9 8 6 5 8 9 9 10 11 9 10 10 10 11 10 8 8 8 8 8 4
13 14 14 14 14 14 14 14 14 13 11 12 10 7 7 8 7 7 4 10 9 5 5 7 3 8 11 11 12 13 12 11 11 11 11 10 9 8 7 8 8 7 4
1 4 10 12 12 12 12 12 12 12 12 11 10 9 11 9 7 4 5 9 10 9 10 11 11 12 12 13 13 12 12 13 12 12 10 8 7 7 7 6 6 4 3
-9 -9 -7 -3 -3 5 7 10 12 12 12 13 13 12 12 10 7 5 6 7 10 10 11 12 12 13 13 12 12 12 12 12 11 10 9 7 6 6 4 3 3 3 2
-8 -8 -10 -10 -11 -10 -8 -6 -3 0 7 11 12 13 13 12 10 10 11 10 10 13 12 12 12 12 12 12 12 12 12 11 11 10 8 7 5 4 3 2 3 2 1
-6 -6 -7 -8 -9 -9 -10 -11 -11 -9 -7 -7 -5 2 9 12 12 13 13 13 13 13 13 12 12 11 12 12 12 12 12 11 9 9 8 5 4 2 2 2 1 0 1
-5 -5 -6 -6 -7 -8 -8 -9 -9 -9 -10 -10 -9 -8 -8 -7 -1 7 11 11 11 11 11 11 12 12 12 12 12 11 11 11 10 9 8 3 2 1 1 0 0 1 1
-7 -6 -6 -5 -6 -7 -6 -7 -7 -7 -7 -9 -10 -11 -11 -10 -10 -10 -7 2 7 10 11 11 11 11 11 11 11 11 10 10 9 7 5 3 1 -0 -1 -1 -0 -0 -4
-7 -8 -8 -6 -5 -6 -6 -5 -5 -6 -6 -6 -7 -10 -10 -11 -12 -12 -13 -13 -10 -2 2 6 8 10 10 10 10 10 10 9 8 6 4 2 0 -1 -2 -1 -1 -5 -10
-5 -5 -7 -8 -8 -8 -7 -5 -4 -5 -5 -5 -5 -5 -7 -9 -10 -11 -12 -13 -13 -5 6 7 8 9 9 10 10 10 9 8 8 5 2 1 0 -1 -2 -3 -5 -9 -9

GFSMA_850_dewp_261.txt.gz
Dewpoint
12 11 10 9 9 9 9 10 9 9 11 12 12 12 12 12 11 10 8 7 6 8 7 7 6 4 6 8 9 10 11 10 8 6 7 9 9 9 9 3 -7 -7 -5
11 11 9 9 9 9 9 10 10 9 10 10 11 11 11 11 10 10 8 7 6 2 -0 1 3 3 6 7 9 10 11 11 8 7 8 9 10 9 9 1 -6 -6 -5
11 11 10 10 9 9 9 10 10 10 10 10 10 9 10 10 9 9 7 7 6 6 5 -2 -0 3 6 6 9 10 11 11 10 10 9 10 10 9 8 -4 -4 -3 -4
11 11 10 10 10 9 10 10 9 9 9 9 9 9 8 9 8 7 7 6 7 7 8 8 7 4 5 6 8 10 10 10 10 10 10 10 9 9 9 3 -0 1 2
6 12 11 10 10 10 9 9 9 9 9 8 7 7 7 7 6 6 7 7 6 6 8 8 9 9 8 7 10 10 10 11 11 11 11 10 10 10 9 8 4 4 6
8 7 11 10 10 10 9 9 9 8 8 7 7 5 6 7 7 7 6 6 7 7 9 9 10 10 9 9 10 10 10 11 11 11 12 12 11 11 10 10 9 6 6
12 2 9 10 10 10 9 9 8 8 9 8 8 7 7 7 7 7 7 7 7 7 8 10 11 11 11 11 11 10 10 10 11 11 11 12 12 11 11 10 10 10 6
12 9 9 10 10 10 10 9 9 9 8 9 8 7 6 6 8 9 10 9 7 8 9 9 10 11 11 11 11 12 11 10 10 10 11 11 12 12 12 12 11 10 8
14 13 12 6 10 10 10 8 9 7 9 8 9 8 6 7 6 8 11 13 11 10 11 11 10 11 12 10 11 12 9 9 10 10 10 11 11 12 12 13 12 11 10
14 14 13 11 7 11 10 10 10 9 8 8 9 10 6 7 9 7 9 11 11 11 11 12 13 12 12 13 13 12 12 12 11 11 11 11 12 12 13 13 13 12 11
13 14 14 13 13 9 11 9 10 10 9 8 8 10 11 11 9 11 10 8 10 11 12 13 12 12 13 14 13 13 11 9 10 12 12 12 12 12 13 13 13 12 11
12 13 14 14 13 13 10 11 9 10 7 7 4 7 9 11 12 12 12 12 11 10 10 12 13 13 13 12 9 9 9 6 7 9 13 12 13 13 12 12 12 12 9
12 12 13 13 13 13 12 11 10 7 7 6 3 4 5 8 10 10 11 11 12 13 12 12 12 11 10 9 8 7 7 6 5 5 8 10 12 12 12 11 10 9 7
12 12 12 12 11 13 12 10 10 9 8 8 6 3 4 6 6 8 10 12 13 14 14 13 11 10 10 10 7 7 7 7 6 6 6 7 9 12 12 11 11 11 10
13 13 13 13 13 12 12 12 11 11 10 10 9 7 6 6 9 12 12 12 13 14 13 13 13 11 9 7 7 9 7 7 6 8 7 7 10 11 12 12 10 9 9
12 12 13 13 13 12 13 13 13 13 13 12 12 11 11 8 9 11 11 12 12 11 13 7 7 9 7 7 7 5 7 7 7 7 9 10 9 11 11 11 9 8 8
13 13 14 14 14 14 14 14 14 13 13 13 12 12 12 12 13 14 14 13 11 9 9 10 5 6 9 6 7 6 6 8 9 9 9 10 11 11 11 10 8 8 7
9 12 13 14 14 14 14 14 14 14 14 14 13 13 13 13 14 14 14 10 8 7 9 11 8 8 8 10 8 9 9 9 10 10 11 11 11 11 8 7 7 7 6
-7 -3 -1 10 11 13 13 13 14 14 14 13 13 13 13 12 12 13 12 11 11 11 11 11 6 10 11 11 11 10 10 13 12 12 12 11 11 10 7 7 6 6 5
-6 -7 -7 -7 -6 -3 2 7 11 11 12 12 12 11 12 12 12 11 11 12 12 11 11 8 11 11 12 12 12 12 12 12 12 12 11 11 10 8 6 6 6 5 4
-5 -5 -6 -6 -6 -6 -8 -6 -5 2 -0 4 10 11 12 12 12 12 12 12 11 10 10 11 11 12 12 11 11 12 12 11 11 11 10 10 9 7 5 5 4 3 3
-9 -7 -6 -5 -5 -5 -5 -7 -8 -7 -8 -6 -5 -4 -1 5 8 11 11 12 12 12 11 13 12 12 10 11 11 11 11 11 11 10 10 8 7 6 4 4 3 2 2
-6 -8 -9 -9 -8 -5 -5 -6 -6 -7 -8 -8 -7 -6 -5 2 -4 -5 -5 4 9 11 12 12 11 12 12 12 11 11 11 11 11 10 10 8 5 4 3 2 1 1 1
-8 -8 -8 -8 -9 -10 -7 -6 -6 -5 -6 -7 -7 -8 -8 -9 -9 -8 -10 -10 -11 -8 0 6 10 11 11 11 11 11 11 11 10 8 7 6 5 3 2 0 -0 -0 0
-7 -7 -6 -7 -7 -8 -9 -9 -7 -6 -5 -4 -5 -6 -7 -7 -8 -8 -10 -12 -12 -12 -12 -12 -1 3 4 9 10 10 10 10 9 8 7 7 4 0 -1 -2 -2 -1 -1
-6 -6 -5 -6 -6 -8 -5 -3 -6 -7 -6 -5 -4 -4 -3 -5 -6 -6 -6 -9 -14 -13 -12 -13 -11 -2 3 6 9 9 9 9 9 8 7 4 2 0 -3 -3 -3 -2 -7

GFSMA_850_dewp_264.txt.gz
Dewpoint
13 11 11 8 -5 -4 -3 -4 -2 -2 1 5 12 12 12 12 11 10 10 9 8 7 5 7 5 6 4 3 5 7 8 8 9 9 7 6 8 8 8 8 7 -3 -4
13 11 10 10 6 4 5 1 3 2 2 2 7 9 11 12 12 9 8 8 7 6 5 2 -0 -1 1 2 5 6 8 9 10 10 8 8 8 9 9 9 7 -3 -3
12 12 9 10 9 9 9 7 10 9 10 9 9 10 9 7 8 10 10 8 6 6 6 6 6 1 -0 2 5 6 8 9 10 10 10 10 9 9 9 9 9 -1 -1
12 12 9 10 9 9 9 9 10 10 10 11 10 9 9 9 8 7 5 5 6 6 7 7 8 8 7 5 4 5 7 9 10 10 9 9 9 10 9 9 9 7 3
10 13 11 10 10 10 10 10 10 9 10 9 9 9 8 8 7 7 7 6 5 4 6 7 8 9 9 8 8 7 8 9 9 10 10 10 11 10 9 9 9 9 8
10 11 12 10 10 10 9 10 9 9 8 9 8 7 7 6 6 6 6 6 6 6 5 5 6 7 9 9 9 9 8 8 9 9 10 11 11 11 12 11 11 11 10
10 6 9 10 11 10 9 8 8 9 9 7 8 8 6 7 6 5 4 5 6 6 7 7 7 7 8 9 11 11 11 10 9 9 9 10 10 11 11 12 12 12 12
12 11 7 9 11 10 10 9 9 8 8 9 8 8 8 6 5 5 7 8 9 7 7 8 8 9 9 10 10 10 11 11 11 11 10 9 10 10 11 11 12 12 12
12 12 12 8 9 10 9 8 9 10 9 7 9 8 8 7 6 6 7 8 9 10 7 7 8 10 10 11 11 10 10 10 11 11 11 11 11 11 11 12 12 12 12
13 13 13 12 9 10 11 10 8 8 8 9 9 8 6 7 9 8 10 10 12 11 9 7 7 9 10 9 7 8 9 9 9 8 9 11 12 11 9 11 12 12 12
14 13 14 14 13 10 12 11 11 9 8 6 7 10 9 7 5 7 9 10 13 12 11 10 10 10 10 9 10 10 11 10 8 7 7 9 10 11 11 7 7 12 12
13 13 13 14 14 13 12 12 12 11 9 8 5 4 10 10 8 9 8 5 5 9 13 13 13 13 13 12 11 10 10 8 7 8 8 7 6 7 10 10 9 8 12
13 13 14 14 14 13 13 13 12 12 11 11 8 7 4 9 11 11 10 10 10 9 9 9 10 11 11 11 12 11 10 9 9 8 7 7 8 7 8 9 8 10 12
12 12 13 13 13 13 14 13 13 12 12 11 11 10 8 5 4 9 10 11 11 12 12 13 11 10 10 11 10 9 10 7 7 8 8 8 8 9 8 7 8 10 11
13 13 12 12 12 12 12 12 13 13 13 12 11 11 10 8 7 6 6 8 10 11 12 12 11 9 9 10 9 7 6 7 7 6 6 6 8 9 10 10 9 11 11
14 14 14 14 13 13 13 13 13 13 13 13 13 12 12 11 11 10 9 10 9 9 12 12 12 11 10 8 9 8 8 8 8 8 7 7 8 8 10 10 11 11 10
12 12 13 14 14 14 14 14 13 13 13 13 13 13 13 13 12 12 11 10 11 12 13 14 13 11 11 11 11 10 10 9 7 9 10 9 9 11 11 11 11 11 9
0 10 11 10 10 13 13 14 14 14 14 14 13 13 12 13 13 12 12 13 13 13 14 14 13 11 11 11 11 10 9 8 10 10 10 10 11 12 11 11 11 10 8
-2 -4 3 6 1 3 7 11 12 12 14 13 14 13 14 14 14 14 14 13 13 13 14 13 12 11 11 11 11 11 11 8 9 10 11 12 11 11 11 10 9 8 7
-5 -4 -2 -3 -3 -2 -2 1 8 7 11 12 12 13 13 13 13 13 13 13 12 12 12 11 12 12 11 10 12 11 10 9 10 11 11 11 11 11 10 10 9 7 6
-5 -7 -8 -6 -3 -3 -4 -5 -6 -5 -2 -1 8 11 7 12 11 11 12 12 13 12 12 12 12 11 11 12 11 10 10 10 11 10 11 11 10 10 9 8 7 6 5
-9 -9 -7 -7 -8 -8 -5 -1 -2 -5 -7 -5 -5 -1 1 5 3 4 7 10 11 11 12 11 12 12 11 12 12 12 11 11 11 10 10 10 9 8 7 7 5 4 3
-7 -7 -8 -7 -7 -7 -8 -9 -7 -4 -3 -5 -6 -6 -5 -2 -0 -3 -2 -4 -3 -3 0 6 8 10 10 11 11 11 11 11 10 10 10 9 8 7 4 3 2 2 1
-5 -5 -6 -5 -6 -6 -7 -8 -8 -9 -9 -7 -5 -4 -5 -6 -5 -3 -5 -8 -8 -8 -8 -7 -8 -7 -1 6 10 10 9 10 10 10 9 7 7 5 4 2 -0 0 -0
-6 -5 -6 -7 -7 -7 -6 -6 -6 -6 -8 -10 -10 -7 -4 -3 -4 -3 -4 -3 -5 -7 -8 -9 -10 -11 -10 -11 -5 3 8 8 8 9 8 8 6 4 2 0 -1 -1 -1
-7 -9 -9 -10 -8 -8 -8 -7 -6 -6 -7 -6 -8 -8 -7 -3 -2 -2 -3 -4 -3 -4 -5 -7 -8 -10 -10 -7 -8 -2 6 8 8 8 8 7 5 4 -1 -3 -2 -2 -2